Retour au catalogue

THORAD AGENA D DEB

ActifSSO
NORAD 42517·DEBRIS·🇺🇸 United States

Lancé Apr 8, 1970 depuis Vandenberg Space Force Base

Loading…

Prochains Passages (prochaines 24 heures)

TLE

FraisSource: Space-Track

Époque: Sep 13, 2026, 09:05 UTC

1 42517U 70025RX  26256.37848651 -.00000029  00000-0  31406-4 0  9996
2 42517 100.2241 311.5981 0091443 266.9038  92.1624 13.42552853628530

Suivez THORAD AGENA D DEB en temps réel avec AllMySat

Download on the App Store